Weather History for Ravenna, OH

Change the Weather History Date:

Saturday, March 22, 2014

  Actual Average (KCAK) Record (KCAK)
Temperature  
Mean Temperature 41 °F 40 °F  
Max Temperature 48 °F 49 °F 83 °F (2012)
Min Temperature 33 °F 30 °F 10 °F (1888)
Degree Days  
Heating Degree Days 24 25  
Month to date heating degree days 640  
Since 1 July heating degree days 5184  
Cooling Degree Days 0 0  
Month to date cooling degree days 0  
Year to date cooling degree days 0  
Moisture  
Dew Point 30 °F    
Average Humidity 71    
Maximum Humidity 83    
Minimum Humidity 50    
Precipitation  
Precipitation 0.00 in 0.10 in 0.82 in (1949)
Month to date precipitation 2.02  
Year to date precipitation 6.94  
Snow  
Snow 0.00 in 0.20 in - ()
Month to date snowfall 6.5  
Since 1 July snowfall 43.0  
Snow Depth -    
Sea Level Pressure  
Sea Level Pressure 29.94 in    
Wind  
Wind Speed 8 mph (WNW)    
Max Wind Speed 18 mph    
Max Gust Speed 26 mph    
Visibility 10 miles    
Events      
T = Trace of Precipitation, MM = Missing Value Source: NWS Daily Summary

Daily Weather History Graph

Daily Weather History Graph

Search for Another Location

Airport:

Trip Planner

Search our weather history database for the weather conditions in past years. The results will help you decide how hot, cold, wet, or windy it might be!

Date:

Astronomy

Mar. 22, 2014 Rise Set
Actual Time 7:24 AM EDT 7:39 PM EDT
Civil Twilight 6:57 AM EDT 8:06 PM EDT
Nautical Twilight 6:25 AM EDT 8:39 PM EDT
Astronomical Twilight 5:52 AM EDT 9:12 PM EDT
Moon 12:59 AM EDT (3/22) 11:04 AM EDT (3/22)
Length of Visible Light 13h 09m
Length of Day
12h 14m
Waning Gibbous, 65% of the Moon is Illuminated
Mar 22
Waning Gibbous
Mar 23
Last Quarter
Mar 30
New
Apr 7
First Quarter
Apr 15
Full

Hourly Weather History & Observations

Time (EDT) Temp. Windchill Dew Point Humidity Pressure Visibility Wind Dir Wind Speed Gust Speed Precip Events Conditions
12:14 AM 39.6 °F 34.0 °F 32.2 °F 75% 29.78 in 10.0 mi SE 8.1 mph - N/A   Scattered Clouds
12:34 AM 39.7 °F 34.3 °F 32.2 °F 74% 29.76 in 10.0 mi SE 8.1 mph - N/A   Clear
12:54 AM 40.1 °F 34.7 °F 32.2 °F 73% 29.75 in 10.0 mi SE 8.1 mph - N/A   Clear
1:14 AM 41.2 °F 39.2 °F 32.4 °F 71% 29.74 in 10.0 mi SE 3.5 mph - N/A   Clear
1:34 AM 41.0 °F 38.0 °F 32.2 °F 71% 29.73 in 10.0 mi SE 4.6 mph - N/A   Clear
1:55 AM 40.5 °F 38.4 °F 32.0 °F 72% 29.72 in 10.0 mi SE 3.5 mph - N/A   Clear
2:14 AM 41.0 °F 38.0 °F 32.0 °F 70% 29.71 in 10.0 mi South 4.6 mph - N/A   Clear
2:34 AM 42.6 °F 39.9 °F 32.0 °F 66% 29.70 in 10.0 mi South 4.6 mph - N/A   Clear
2:54 AM 43.3 °F 39.2 °F 32.0 °F 64% 29.69 in 10.0 mi South 6.9 mph - N/A   Clear
3:14 AM 43.9 °F 41.3 °F 32.0 °F 63% 29.68 in 10.0 mi South 4.6 mph - N/A   Mostly Cloudy
3:34 AM 44.8 °F 43.3 °F 31.6 °F 60% 29.66 in 10.0 mi SW 3.5 mph - N/A   Mostly Cloudy
3:54 AM 46.8 °F - 31.1 °F 55% 29.66 in 10.0 mi SSW 4.6 mph - N/A   Overcast
4:14 AM 48.7 °F - 30.6 °F 50% 29.66 in 10.0 mi WSW 5.8 mph 16.1 mph N/A   Overcast
4:34 AM 46.0 °F 38.8 °F 32.4 °F 59% 29.71 in 10.0 mi WNW 18.4 mph 25.3 mph N/A   Mostly Cloudy
4:54 AM 42.3 °F 36.3 °F 33.1 °F 70% 29.72 in 10.0 mi NW 10.4 mph 18.4 mph N/A   Overcast
5:14 AM 41.0 °F 34.7 °F 33.4 °F 74% 29.73 in 10.0 mi WNW 10.4 mph - N/A   Overcast
5:34 AM 40.3 °F 35.5 °F 33.6 °F 77% 29.73 in 10.0 mi WNW 6.9 mph - N/A   Overcast
5:54 AM 40.1 °F 36.9 °F 33.8 °F 78% 29.74 in 10.0 mi West 4.6 mph - N/A   Overcast
6:14 AM 40.1 °F 36.9 °F 33.8 °F 78% 29.75 in 10.0 mi West 4.6 mph - N/A   Overcast
6:34 AM 42.3 °F 34.8 °F 34.3 °F 74% 29.76 in 10.0 mi West 15.0 mph 19.6 mph N/A   Overcast
6:54 AM 42.1 °F 34.9 °F 34.2 °F 74% 29.78 in 10.0 mi West 13.8 mph 21.9 mph N/A   Overcast
7:14 AM 41.4 °F 33.3 °F 34.7 °F 77% 29.80 in 10.0 mi West 16.1 mph 21.9 mph N/A   Overcast
7:34 AM 41.5 °F 33.5 °F 34.9 °F 77% 29.82 in 10.0 mi West 16.1 mph 21.9 mph N/A   Overcast
7:54 AM 41.2 °F 32.4 °F 34.9 °F 78% 29.84 in 10.0 mi WNW 18.4 mph 25.3 mph N/A   Overcast
8:14 AM 39.9 °F 32.1 °F 34.3 °F 80% 29.86 in 7.0 mi WNW 13.8 mph 26.5 mph N/A   Overcast
8:34 AM 38.7 °F 30.5 °F 33.3 °F 81% 29.87 in 7.0 mi WNW 13.8 mph 24.2 mph N/A   Overcast
8:54 AM 38.5 °F 29.6 °F 32.9 °F 80% 29.88 in 7.0 mi WNW 16.1 mph 21.9 mph N/A   Overcast
9:14 AM 37.6 °F 29.1 °F 32.0 °F 80% 29.91 in 7.0 mi WNW 13.8 mph 20.7 mph N/A   Overcast
9:34 AM 36.5 °F 29.2 °F 31.8 °F 83% 29.93 in 7.0 mi WNW 10.4 mph 19.6 mph N/A   Overcast
9:54 AM 36.5 °F 29.7 °F 31.6 °F 83% 29.95 in 7.0 mi NW 9.2 mph - N/A   Overcast
10:14 AM 36.5 °F 28.7 °F 31.3 °F 81% 29.96 in 10.0 mi WNW 11.5 mph 18.4 mph N/A   Overcast
10:34 AM 35.6 °F 26.6 °F 30.2 °F 81% 29.97 in 10.0 mi NW 13.8 mph 19.6 mph N/A   Overcast
10:54 AM 35.2 °F 26.6 °F 29.8 °F 81% 29.99 in 10.0 mi WNW 12.7 mph 17.3 mph N/A   Overcast
11:14 AM 35.6 °F 28.0 °F 27.7 °F 73% 30.00 in 10.0 mi WNW 10.4 mph 18.4 mph N/A   Overcast
11:34 AM 37.0 °F 29.3 °F 28.2 °F 70% 30.00 in 10.0 mi WNW 11.5 mph 19.6 mph N/A   Overcast
11:54 AM 37.4 °F 30.8 °F 28.6 °F 70% 30.01 in 10.0 mi NW 9.2 mph - N/A   Overcast
12:14 PM 36.5 °F 29.7 °F 28.4 °F 72% 30.02 in 10.0 mi WNW 9.2 mph - N/A   Overcast
12:34 PM 36.5 °F 30.3 °F 28.6 °F 73% 30.03 in 10.0 mi West 8.1 mph - N/A   Overcast
12:54 PM 36.5 °F 29.7 °F 28.4 °F 72% 30.04 in 10.0 mi WNW 9.2 mph - N/A   Overcast
1:14 PM 37.0 °F 31.6 °F 28.9 °F 73% 30.04 in 10.0 mi WNW 6.9 mph - N/A   Overcast
1:34 PM 37.9 °F 30.9 °F 28.2 °F 68% 30.05 in 10.0 mi WNW 10.4 mph - N/A   Overcast
1:54 PM 38.1 °F 32.9 °F 28.4 °F 68% 30.05 in 10.0 mi NW 6.9 mph - N/A   Overcast
2:14 PM 37.6 °F 32.3 °F 28.2 °F 69% 30.05 in 10.0 mi NW 6.9 mph - N/A   Overcast
2:34 PM 37.6 °F 32.3 °F 27.7 °F 67% 30.04 in 10.0 mi WNW 6.9 mph - N/A   Overcast
2:54 PM 38.5 °F 33.4 °F 28.6 °F 68% 30.04 in 10.0 mi NW 6.9 mph - N/A   Overcast
3:14 PM 38.3 °F 32.5 °F 28.2 °F 67% 30.05 in 10.0 mi NW 8.1 mph - N/A   Overcast
3:34 PM 37.9 °F 32.1 °F 28.0 °F 68% 30.05 in 10.0 mi NW 8.1 mph - N/A   Overcast
3:54 PM 37.9 °F 32.7 °F 28.4 °F 69% 30.05 in 10.0 mi NW 6.9 mph - N/A   Overcast
4:14 PM 37.9 °F 33.5 °F 28.4 °F 69% 30.05 in 10.0 mi NW 5.8 mph - N/A   Overcast
4:34 PM 38.1 °F 31.2 °F 28.8 °F 69% 30.06 in 10.0 mi NW 10.4 mph - N/A   Overcast
4:54 PM 37.4 °F 30.8 °F 28.4 °F 70% 30.06 in 10.0 mi NW 9.2 mph - N/A   Overcast
5:14 PM 37.4 °F 32.8 °F 27.7 °F 68% 30.06 in 10.0 mi NW 5.8 mph - N/A   Overcast
5:34 PM 37.0 °F 29.8 °F 27.0 °F 67% 30.06 in 10.0 mi NW 10.4 mph - N/A   Overcast
5:54 PM 36.9 °F 32.2 °F 25.9 °F 64% 30.07 in 10.0 mi NW 5.8 mph - N/A   Overcast
6:14 PM 36.5 °F 30.3 °F 26.1 °F 66% 30.07 in 10.0 mi NW 8.1 mph - N/A   Overcast
6:34 PM 35.8 °F 30.9 °F 26.1 °F 68% 30.08 in 10.0 mi NW 5.8 mph - N/A   Overcast
6:54 PM 35.4 °F 27.8 °F 25.7 °F 68% 30.09 in 10.0 mi NW 10.4 mph 16.1 mph N/A   Overcast
7:14 PM 35.1 °F 29.3 °F 26.1 °F 70% 30.09 in 10.0 mi NW 6.9 mph - N/A   Overcast
7:34 PM 34.9 °F 32.0 °F 25.7 °F 69% 30.10 in 10.0 mi NW 3.5 mph - N/A   Overcast
7:54 PM 34.7 °F 28.8 °F 25.9 °F 70% 30.10 in 10.0 mi WNW 6.9 mph - N/A   Overcast
8:14 PM 34.9 °F 30.8 °F 25.5 °F 69% 30.10 in 10.0 mi WNW 4.6 mph - N/A   Overcast
8:34 PM 34.7 °F 29.6 °F 25.7 °F 70% 30.11 in 10.0 mi West 5.8 mph - N/A   Overcast
8:54 PM 34.7 °F 30.6 °F 25.7 °F 70% 30.11 in 10.0 mi West 4.6 mph - N/A   Overcast
9:14 PM 34.9 °F 29.9 °F 26.1 °F 70% 30.11 in 10.0 mi West 5.8 mph - N/A   Overcast
9:34 PM 34.7 °F 29.6 °F 25.7 °F 70% 30.11 in 10.0 mi West 5.8 mph - N/A   Overcast
9:55 PM 34.5 °F 30.4 °F 25.7 °F 70% 30.11 in 10.0 mi West 4.6 mph - N/A   Overcast
10:14 PM 34.5 °F 30.4 °F 25.5 °F 70% 30.11 in 10.0 mi West 4.6 mph - N/A   Overcast
10:34 PM 34.3 °F 29.2 °F 25.3 °F 70% 30.11 in 10.0 mi West 5.8 mph - N/A   Overcast
10:55 PM 34.2 °F 30.0 °F 25.3 °F 70% 30.11 in 10.0 mi West 4.6 mph - N/A   Overcast
11:14 PM 34.0 °F 29.8 °F 24.8 °F 69% 30.11 in 10.0 mi West 4.6 mph - N/A   Overcast
11:34 PM 34.0 °F 29.8 °F 24.8 °F 69% 30.11 in 10.0 mi West 4.6 mph - N/A   Overcast
11:54 PM 33.4 °F 30.4 °F 25.0 °F 71% 30.11 in 10.0 mi WSW 3.5 mph - N/A   Overcast